Regional Weather Roundup
Issued by NWS

Home | Current Version | Previous Version | Text Only | Print | Product List | Glossary Off
Versions: 1 2 3 4 5 6 7 8 9 10 11 12 13 14 15 16 17 18 19 20 21 22 23 24 25 26 27 28 29 30 31 32 33 34 35 36 37 38 39 40 41 42 43 44 45 46 47 48 49 50

000
ASUS43 KLOT 011400
RWRIL

ILLINOIS REGIONAL WEATHER ROUNDUP
NATIONAL WEATHER SERVICE CHICAGO/ROMEOVILLE IL
900 AM CDT WED JUL 01 2015

NOTE: "FAIR" INDICATES FEW OR NO CLOUDS BELOW 12,000 FEET WITH NO
SIGNIFICANT WEATHER AND/OR OBSTRUCTIONS TO VISIBILITY.

* THESE STATIONS ARE NOT UNDER NWS QUALITY CONTROL. THEY ALSO MAY NOT
  REPORT WEATHER SUCH AS PRECIPITATION OR FOG.

ILZ001-002-007-009-015-016-024-011500-
NORTHWEST ILLINOIS

CITY           SKY/WX    TMP DP  RH WIND       PRES   REMARKS
MOLINE         CLOUDY    65  61  87 NE12      29.93S FOG
STERLING*      MOSUNNY   63  57  82 E10       29.96S
$$

ILZ003-004-008-010-011-017-018-011500-
NORTH CENTRAL ILLINOIS

CITY           SKY/WX    TMP DP  RH WIND       PRES   REMARKS
ROCKFORD       CLOUDY    63  54  72 NE8       29.99R
FREEPORT*      CLOUDY    60  56  86 E7        29.99S
$$

ILZ005-006-012>014-019>023-011500-
NORTHEAST ILLINOIS

CITY           SKY/WX    TMP DP  RH WIND       PRES   REMARKS
CHICAGO-OHARE  PTSUNNY   59  51  75 VRB3      29.97S
CHICAGO-MIDWAY CLOUDY    62  53  72 NE7       29.97S
AURORA         PTSUNNY   62  53  72 NE10      29.97R
WAUKEGAN       PTSUNNY   59  52  77 N3        29.97R
DUPAGE AIRPORT CLOUDY    60  53  77 NE6       29.96S
WHEELING       CLOUDY    60  52  74 CALM      29.99S
NORTHERLY ISL    N/A     59  52  77 N7          N/A
$$

LMZ740>746-011500-
SOUTHERN LAKE MICHIGAN

STATION/POSITION SKY/WX   TEMP    WIND        PRES    VSBY  WAVE
                          AIR SEA DIR/SP/G                  HT/PER
                          (F)     (DEG/KT/KT) (MB)    (MI)  (FT/S)
HARRISON CRIB              56      10/  8/ 10   N/A
BURNHAM HARBOR             59     360/  7/  8   N/A
CALUMET HARBOR             57      10/  7/ 10   N/A
BURNS HARBOR               58      10/ 11/ 13 1015.2S
MICHIGAN CITY              58     350/ 11/ 13   N/A
MICHIGAN CITY 6N           58 65   10/ 10/ 14   N/A           4/ 6
ST. JOSEPH                 59 63                N/A           4/ 5
$$

ILZ025>027-034>036-040-047-049-050-058-095>099-011500-
WEST-CENTRAL ILLINOIS

CITY           SKY/WX    TMP DP  RH WIND       PRES   REMARKS
QUINCY         CLOUDY    73  66  78 S3        29.91R
PITTSFIELD*    CLOUDY    73  67  80 W3        29.93R
$$

ILZ028>032-037-038-041>044-048-051>054-059>061-011500-
CENTRAL ILLINOIS

CITY           SKY/WX    TMP DP  RH WIND       PRES   REMARKS
DECATUR        PTSUNNY   68  65  90 E6        29.92R FOG
PEORIA         SUNNY     69  63  81 E8        29.92R
LACON*         SUNNY     63  57  79 E8        29.93S
SPRINGFIELD    PTSUNNY   74  69  85 W8        29.91R
TAYLORVILLE    NOT AVBL
$$

ILZ033-039-045-046-055>057-062-063-011500-
EAST-CENTRAL ILLINOIS

CITY           SKY/WX    TMP DP  RH WIND       PRES   REMARKS
CHAMPAIGN      PTSUNNY   66  63  90 E8        29.93R
MATTOON        MOSUNNY   68  66  93 SE3       29.91S FOG
$$

ILZ079-100>102-011500-
SOUTHWEST ILLINOIS

CITY           SKY/WX    TMP DP  RH WIND       PRES   REMARKS
ALTON          CLOUDY    72  72 100 W5        29.93R
CAHOKIA*       CLOUDY    74  68  81 SW6       29.93R
$$

ILZ064>066-069>071-074>076-080>082-084>086-088>090-092>094-011500-
SOUTH-CENTRAL ILLINOIS

CITY           SKY/WX    TMP DP  RH WIND       PRES   REMARKS
CARBONDALE     LGT RAIN  72  69  90 SW3       29.96R
MARION         LGT RAIN  72  70  94 NW9       29.97R
MT. VERNON     CLOUDY    73  66  78 SW3       29.93S
$$

ILZ067-068-072-073-078-083-087-091-011500-
SOUTHEAST ILLINOIS

CITY           SKY/WX    TMP DP  RH WIND       PRES   REMARKS
LAWRENCEVILLE  PTSUNNY   72  69  90 E3        29.92S FOG
$$

ABBREVIATIONS USED IN REMARKS
   TC - TEMPERATURE IN CELSIUS
  WCI - WIND CHILL INDEX
   HX - HEAT INDEX
  VSB - VISIBILITY
$$



USA.gov is the U.S. government's official web portal to all federal, state and local government web resources and services.